Regional Weather Roundup
Issued by NWS

Home | Current Version | Previous Version | Graphics & Text | Print | Product List | Glossary On
Versions: 1 2 3 4 5 6 7 8 9 10 11 12 13 14 15 16 17 18 19 20 21 22 23 24 25 26 27 28 29 30 31 32 33 34 35 36 37 38 39 40 41 42 43 44 45 46 47 48 49 50
000
ASUS43 KMKX 051400
RWRWI

WISCONSIN REGIONAL WEATHER ROUNDUP
NATIONAL WEATHER SERVICE MILWAUKEE/SULLIVAN WI
900 AM CDT THU MAY 05 2016

NOTE: "FAIR" INDICATES FEW OR NO CLOUDS BELOW 12,000 FEET WITH NO
SIGNIFICANT WEATHER AND/OR OBSTRUCTIONS TO VISIBILITY.

WIZ001-002-006>008-014>016-023>028-051500-
NORTHWEST WISCONSIN

CITY           SKY/WX    TMP DP  RH WIND       PRES   REMARKS
SUPERIOR ARPT  NOT AVBL
ASHLAND        NOT AVBL
HAYWARD        NOT AVBL
SIREN          NOT AVBL
CUMBERLAND     NOT AVBL
RICE LAKE      NOT AVBL
CHETEK         NOT AVBL
LADYSMITH      NOT AVBL
EAU CLAIRE     NOT AVBL
MENOMONIE      SUNNY     51  38  59 CALM      30.09R
NEW RICHMOND   NOT AVBL
OSCEOLA        NOT AVBL
$$

WIZ003>005-009-010-017-018-051500-
NORTH CENTRAL WISCONSIN

CITY           SKY/WX    TMP DP  RH WIND       PRES   REMARKS
MANITOWISH WTR NOT AVBL
ARBOR VITAE    NOT AVBL
WOODRUFF       NOT AVBL
RHINELANDER    NOT AVBL
EAGLE RIVER    NOT AVBL
LAND O LAKES   NOT AVBL
PHILLIPS       CLOUDY    43  35  73 CALM      30.04F
TOMAHAWK       SUNNY     43  33  69 CALM      30.05S
MEDFORD        NOT AVBL
MERRILL        SUNNY     43  34  71 CALM      30.06R
$$

WIZ029-030-035-036-043>047-051500-
CENTRAL WISCONSIN

CITY           SKY/WX    TMP DP  RH WIND       PRES   REMARKS
WAUSAU         NOT AVBL
MOSINEE        NOT AVBL
MARSHFIELD     NOT AVBL
STEVENS POINT  NOT AVBL
WAUPACA        SUNNY     47  34  62 N5        30.06R
WAUTOMA        NOT AVBL
WISC RAPIDS    NOT AVBL
CAMP DOUGLAS   NOT AVBL
$$

WIZ011>013-019>022-031-037>040-048>050-051500-
NORTHEAST WISCONSIN

CITY           SKY/WX    TMP DP  RH WIND       PRES   REMARKS
ANTIGO         NOT AVBL
SHAWANO        SUNNY     47  35  62 NE5       30.05R
OCONTO         NOT AVBL
STURGEON BAY   SUNNY     43  34  70 N9        30.05S
GREEN BAY      NOT AVBL
MANITOWOC      NOT AVBL
APPLETON       NOT AVBL
CLINTONVILLE   NOT AVBL
OSHKOSH        NOT AVBL
$$

WIZ032>034-041-042-053>061-051500-
SOUTHWEST WISCONSIN

CITY           SKY/WX    TMP DP  RH WIND       PRES   REMARKS
LA CROSSE      NOT AVBL
SPARTA         NOT AVBL
VIROQUA        SUNNY     46  35  65 N5        30.07R
BOSCOBEL       NOT AVBL
PRAIRIE DU CHI NOT AVBL
PLATTEVILLE    SUNNY     47  37  70 N9        30.06R
$$

WIZ056-057-062-063-064-067-068-051500-
SOUTH CENTRAL WISCONSIN

CITY           SKY/WX    TMP DP  RH WIND       PRES   REMARKS
REEDSBURG      NOT AVBL
BARABOO/DELLS  NOT AVBL
LONE ROCK      NOT AVBL
MINERAL POINT  NOT AVBL
MADISON        NOT AVBL
MIDDLETON      NOT AVBL
WATERTOWN      NOT AVBL
MONROE         SUNNY     45  34  65 N10       30.03R
JANESVILLE     NOT AVBL
$$

WIZ051-052-058>065-066-070>072-051500-
SOUTHEAST WISCONSIN

CITY           SKY/WX    TMP DP  RH WIND       PRES   REMARKS
MILWAUKEE      NOT AVBL
WAUKESHA       NOT AVBL
MILWAUKEE/TIMM NOT AVBL
RACINE         NOT AVBL
BURLINGTON     MOSUNNY   41  34  75 N7        30.01R
KENOSHA        NOT AVBL
FOND DU LAC    NOT AVBL
SHEBOYGAN      NOT AVBL
WEST BEND      NOT AVBL
JUNEAU         SUNNY     43  35  73 N8        30.04S
$$

LSZ147-162-051500-
LAKE SUPERIOR

STATION/POSITION TIME  TEMP    WIND        PRES    WAVE
                       AIR SEA DIR/SP/G            HT/PER
                 (UTC) (F)     (DEG/KT/KT) (MB)    (FT/S)
W MID LAKE BUOY  1250   38 37  190/  8/  8 1017.2F   1
DEVILS ISLAND    1300   40     250/  7/ 10 1017.9R
PORT WING        1220   37     220/  6/  7 1016.9S
SAXON HARBOR     1340   50     200/  4/  6 1016.9R
$$

LMZ867-665-643>646-051500-
LAKE MICHIGAN

STATION/POSITION TIME  TEMP    WIND        PRES    WAVE
                       AIR SEA DIR/SP/G            HT/PER
                 (UTC) (F)     (DEG/KT/KT) (MB)    (FT/S)
CHAMBERS ISLAND  1300   41     340/  7/ 10 1017.3R
N MID LAKE BUOY  1250   38 39  350/ 10/ 10 1016.3R   2/ 4
NORTHPORT PIER   1300   38     320/  9/ 12 1016.9R
ALGOMA LAKESHORE 1315          340/ 12/ 14   N/A
KEWAUNEE LAKESHO 1300   44     340/  9/ 12 1016.0R
SHEBOYGAN LAKESH 1300   42     360/ 17/ 19 1017.1R
PORT WASHINGTON  1340   47      30/  8/ 12 1017.6R
S MID LAKE BUOY  1250   40 40   20/ 17/ 21 1014.2R   6/ 6
KENOSHA   LAKESH 1300   42      10/ 19/ 22 1015.2R
$$

TC  - TEMPERATURE IN CELSIUS
VSB - VISIBILITY IN STATUTE MILES
WCI - WIND CHILL INDEX
HX  - HEAT INDEX




USA.gov is the U.S. government's official web portal to all federal, state and local government web resources and services.